Time,TemperatureF,DewpointF,PressureIn,WindDirection,WindDirectionDegrees,WindSpeedMPH,WindSpeedGustMPH,Humidity,HourlyPrecipIn,Conditions,Clouds,dailyrainin,SoftwareType,DateUTC
2013-04-06 00:00:00,42.8,22.5,30.18,WNW,292,2.0,4.0,44,-99.99,,,-99.99,meteohub,2013-04-06 04:00:00,
2013-04-06 00:01:00,42.8,22.5,30.18,WNW,292,4.0,4.0,44,-99.99,,,-99.99,meteohub,2013-04-06 04:01:00,
2013-04-06 00:06:00,42.8,22.5,30.18,NNE,22,3.0,4.0,44,-99.99,,,-99.99,meteohub,2013-04-06 04:06:00,
2013-04-06 00:11:00,43.0,22.6,30.21,NW,315,3.0,6.0,44,-99.99,,,-99.99,meteohub,2013-04-06 04:11:00,
2013-04-06 00:17:00,43.2,22.3,30.21,WNW,292,6.0,8.0,43,-99.99,,,-99.99,meteohub,2013-04-06 04:17:00,
2013-04-06 00:22:00,43.5,21.9,30.21,NW,315,8.0,8.0,42,-99.99,,,-99.99,meteohub,2013-04-06 04:22:00,
2013-04-06 00:27:00,43.3,21.9,30.17,North,0,4.0,8.0,42,-99.99,,,-99.99,meteohub,2013-04-06 04:27:00,
2013-04-06 00:32:00,43.7,22.1,30.17,WNW,292,4.0,8.0,42,-99.99,,,-99.99,meteohub,2013-04-06 04:32:00,
2013-04-06 00:37:00,43.7,22.1,30.17,NNW,338,8.0,8.0,42,-99.99,,,-99.99,meteohub,2013-04-06 04:37:00,
2013-04-06 00:42:00,43.5,21.9,30.17,WNW,292,6.0,8.0,42,-99.99,,,-99.99,meteohub,2013-04-06 04:42:00,
2013-04-06 00:47:00,43.7,21.6,30.17,WNW,292,4.0,8.0,41,-99.99,,,-99.99,meteohub,2013-04-06 04:47:00,
2013-04-06 00:52:00,43.7,22.1,30.17,NNW,338,6.0,12.0,42,-99.99,,,-99.99,meteohub,2013-04-06 04:52:00,
2013-04-06 00:57:00,43.7,21.6,30.17,WNW,292,4.0,12.0,41,-99.99,,,-99.99,meteohub,2013-04-06 04:57:00,
2013-04-06 01:02:00,43.7,21.6,30.17,WNW,292,5.0,12.0,41,-99.99,,,-99.99,meteohub,2013-04-06 05:02:00,
2013-04-06 01:07:00,43.7,21.6,30.17,NW,315,6.0,9.0,41,-99.99,,,-99.99,meteohub,2013-04-06 05:07:00,
2013-04-06 01:12:00,43.7,21.6,30.17,West,270,4.0,9.0,41,-99.99,,,-99.99,meteohub,2013-04-06 05:12:00,
2013-04-06 01:17:00,43.9,21.7,30.17,NW,315,6.0,10.0,41,-99.99,,,-99.99,meteohub,2013-04-06 05:17:00,
2013-04-06 01:22:00,43.9,21.7,30.17,West,270,6.0,11.0,41,-99.99,,,-99.99,meteohub,2013-04-06 05:22:00,
2013-04-06 01:27:00,43.7,21.6,30.17,NW,315,6.0,11.0,41,-99.99,,,-99.99,meteohub,2013-04-06 05:27:00,
2013-04-06 01:32:00,43.7,21.6,30.17,West,270,5.0,11.0,41,-99.99,,,-99.99,meteohub,2013-04-06 05:32:00,
2013-04-06 01:37:00,43.7,21.6,30.17,NNW,338,3.0,11.0,41,-99.99,,,-99.99,meteohub,2013-04-06 05:37:00,
2013-04-06 01:42:00,43.7,21.6,30.17,WNW,292,6.0,11.0,41,-99.99,,,-99.99,meteohub,2013-04-06 05:42:00,
2013-04-06 01:47:00,43.5,21.4,30.17,NNW,338,4.0,9.0,41,-99.99,,,-99.99,meteohub,2013-04-06 05:47:00,
2013-04-06 01:52:00,43.3,21.2,30.21,WNW,292,3.0,8.0,41,-99.99,,,-99.99,meteohub,2013-04-06 05:52:00,
2013-04-06 01:57:00,43.3,21.2,30.21,NNE,22,5.0,8.0,41,-99.99,,,-99.99,meteohub,2013-04-06 05:57:00,
2013-04-06 02:02:00,43.2,21.0,30.21,NW,315,4.0,8.0,41,-99.99,,,-99.99,meteohub,2013-04-06 06:02:00,
2013-04-06 02:07:00,43.0,21.0,30.18,North,0,5.0,8.0,41,-99.99,,,-99.99,meteohub,2013-04-06 06:07:00,
2013-04-06 02:12:00,42.8,20.8,30.18,NW,315,5.0,8.0,41,-99.99,,,-99.99,meteohub,2013-04-06 06:12:00,
2013-04-06 02:17:00,42.6,21.2,30.18,WNW,292,6.0,7.0,42,-99.99,,,-99.99,meteohub,2013-04-06 06:17:00,
2013-04-06 02:22:00,42.6,21.2,30.18,NW,315,4.0,11.0,42,-99.99,,,-99.99,meteohub,2013-04-06 06:22:00,
2013-04-06 02:27:00,42.6,21.2,30.18,WNW,292,3.0,11.0,42,-99.99,,,-99.99,meteohub,2013-04-06 06:27:00,
2013-04-06 02:33:00,42.4,21.0,30.18,WNW,292,5.0,11.0,42,-99.99,,,-99.99,meteohub,2013-04-06 06:33:00,
2013-04-06 02:38:00,42.3,21.4,30.22,NW,315,6.0,9.0,43,-99.99,,,-99.99,meteohub,2013-04-06 06:38:00,
2013-04-06 02:43:00,42.3,21.4,30.22,NW,315,4.0,9.0,43,-99.99,,,-99.99,meteohub,2013-04-06 06:43:00,
2013-04-06 02:48:00,42.3,21.4,30.22,NW,315,6.0,10.0,43,-99.99,,,-99.99,meteohub,2013-04-06 06:48:00,
2013-04-06 02:53:00,42.4,21.6,30.18,WNW,292,5.0,10.0,43,-99.99,,,-99.99,meteohub,2013-04-06 06:53:00,
2013-04-06 02:58:00,42.4,22.1,30.18,WNW,292,6.0,10.0,44,-99.99,,,-99.99,meteohub,2013-04-06 06:58:00,
2013-04-06 03:03:00,42.1,21.7,30.19,WNW,292,7.0,10.0,44,-99.99,,,-99.99,meteohub,2013-04-06 07:03:00,
2013-04-06 03:08:00,42.1,22.3,30.19,NW,315,5.0,10.0,45,-99.99,,,-99.99,meteohub,2013-04-06 07:08:00,
2013-04-06 03:13:00,42.3,21.9,30.18,NW,315,6.0,11.0,44,-99.99,,,-99.99,meteohub,2013-04-06 07:13:00,
2013-04-06 03:18:00,42.4,22.1,30.18,WNW,292,9.0,14.0,44,-99.99,,,-99.99,meteohub,2013-04-06 07:18:00,
2013-04-06 03:23:00,42.6,21.7,30.18,NW,315,11.0,14.0,43,-99.99,,,-99.99,meteohub,2013-04-06 07:23:00,
2013-04-06 03:28:00,42.4,22.1,30.18,WNW,292,6.0,14.0,44,-99.99,,,-99.99,meteohub,2013-04-06 07:28:00,
2013-04-06 03:33:00,42.4,22.1,30.18,NW,315,12.0,13.0,44,-99.99,,,-99.99,meteohub,2013-04-06 07:33:00,
2013-04-06 03:38:00,42.4,22.1,30.18,WNW,292,5.0,13.0,44,-99.99,,,-99.99,meteohub,2013-04-06 07:38:00,
2013-04-06 03:43:00,42.4,22.1,30.18,NW,315,8.0,12.0,44,-99.99,,,-99.99,meteohub,2013-04-06 07:43:00,
2013-04-06 03:48:00,42.4,21.6,30.18,WNW,292,8.0,13.0,43,-99.99,,,-99.99,meteohub,2013-04-06 07:48:00,
2013-04-06 03:53:00,42.4,22.1,30.18,NNW,338,6.0,13.0,44,-99.99,,,-99.99,meteohub,2013-04-06 07:53:00,
2013-04-06 03:58:00,42.3,21.4,30.18,WNW,292,5.0,12.0,43,-99.99,,,-99.99,meteohub,2013-04-06 07:58:00,
2013-04-06 04:03:00,42.3,21.4,30.18,NW,315,7.0,9.0,43,-99.99,,,-99.99,meteohub,2013-04-06 08:03:00,
2013-04-06 04:08:00,42.1,21.2,30.22,NW,315,5.0,9.0,43,-99.99,,,-99.99,meteohub,2013-04-06 08:08:00,
2013-04-06 04:13:00,41.9,21.6,30.22,NW,315,6.0,9.0,44,-99.99,,,-99.99,meteohub,2013-04-06 08:13:00,
2013-04-06 04:18:00,41.9,21.6,30.22,WNW,292,4.0,9.0,44,-99.99,,,-99.99,meteohub,2013-04-06 08:18:00,
2013-04-06 04:23:00,41.7,21.4,30.22,WNW,292,6.0,7.0,44,-99.99,,,-99.99,meteohub,2013-04-06 08:23:00,
2013-04-06 04:28:00,41.7,21.4,30.22,WNW,292,6.0,7.0,44,-99.99,,,-99.99,meteohub,2013-04-06 08:28:00,
2013-04-06 04:33:00,41.5,21.7,30.22,NW,315,5.0,8.0,45,-99.99,,,-99.99,meteohub,2013-04-06 08:33:00,
2013-04-06 04:38:00,41.4,21.7,30.22,NW,315,5.0,8.0,45,-99.99,,,-99.99,meteohub,2013-04-06 08:38:00,
2013-04-06 04:43:00,41.2,22.1,30.23,North,0,6.0,9.0,46,-99.99,,,-99.99,meteohub,2013-04-06 08:43:00,
2013-04-06 04:49:00,41.2,21.6,30.23,NW,315,4.0,9.0,45,-99.99,,,-99.99,meteohub,2013-04-06 08:49:00,
2013-04-06 04:54:00,41.2,21.0,30.23,NNE,22,5.0,9.0,44,-99.99,,,-99.99,meteohub,2013-04-06 08:54:00,
2013-04-06 04:59:00,41.0,21.4,30.23,WNW,292,3.0,8.0,45,-99.99,,,-99.99,meteohub,2013-04-06 08:59:00,
2013-04-06 05:04:00,41.0,21.4,30.23,WSW,248,1.0,7.0,45,-99.99,,,-99.99,meteohub,2013-04-06 09:04:00,
2013-04-06 05:09:00,40.8,21.2,30.23,NW,315,0.0,7.0,45,-99.99,,,-99.99,meteohub,2013-04-06 09:09:00,
2013-04-06 05:15:00,40.8,21.2,30.23,WNW,292,0.0,4.0,45,-99.99,,,-99.99,meteohub,2013-04-06 09:15:00,
2013-04-06 05:20:00,40.6,21.0,30.23,WNW,292,0.0,3.0,45,-99.99,,,-99.99,meteohub,2013-04-06 09:20:00,
2013-04-06 05:25:00,40.5,20.8,30.23,WNW,292,0.0,5.0,45,-99.99,,,-99.99,meteohub,2013-04-06 09:25:00,
2013-04-06 05:30:00,40.3,20.7,30.23,NNW,338,0.0,5.0,45,-99.99,,,-99.99,meteohub,2013-04-06 09:30:00,
2013-04-06 05:35:00,40.1,20.5,30.24,WNW,292,0.0,3.0,45,-99.99,,,-99.99,meteohub,2013-04-06 09:35:00,
2013-04-06 05:40:00,39.9,20.3,30.27,WNW,292,0.0,3.0,45,-99.99,,,-99.99,meteohub,2013-04-06 09:40:00,
2013-04-06 05:45:00,39.6,19.9,30.27,WNW,292,2.0,3.0,45,-99.99,,,-99.99,meteohub,2013-04-06 09:45:00,
2013-04-06 05:50:00,39.4,20.3,30.28,WNW,292,0.0,3.0,46,-99.99,,,-99.99,meteohub,2013-04-06 09:50:00,
2013-04-06 05:55:00,39.2,20.1,30.28,WNW,292,0.0,3.0,46,-99.99,,,-99.99,meteohub,2013-04-06 09:55:00,
2013-04-06 06:00:00,38.8,19.9,30.28,WNW,292,0.0,3.0,46,-99.99,,,-99.99,meteohub,2013-04-06 10:00:00,
2013-04-06 06:05:00,38.7,19.8,30.28,WNW,292,0.0,2.0,46,-99.99,,,-99.99,meteohub,2013-04-06 10:05:00,
2013-04-06 06:10:00,38.8,20.3,30.28,WNW,292,0.0,0.0,47,-99.99,,,-99.99,meteohub,2013-04-06 10:10:00,
2013-04-06 06:15:00,38.7,20.3,30.28,WNW,292,0.0,0.0,47,-99.99,,,-99.99,meteohub,2013-04-06 10:15:00,
2013-04-06 06:20:00,38.3,19.9,30.29,WNW,292,0.0,1.0,47,-99.99,,,-99.99,meteohub,2013-04-06 10:20:00,
2013-04-06 06:25:00,38.3,19.9,30.29,WNW,292,0.0,2.0,47,-99.99,,,-99.99,meteohub,2013-04-06 10:25:00,
2013-04-06 06:30:00,38.1,20.3,30.29,WNW,292,0.0,2.0,48,-99.99,,,-99.99,meteohub,2013-04-06 10:30:00,
2013-04-06 06:35:00,38.3,20.3,30.29,NNW,338,0.0,0.0,48,-99.99,,,-99.99,meteohub,2013-04-06 10:35:00,
2013-04-06 06:40:00,38.3,20.3,30.32,NW,315,0.0,0.0,48,-99.99,,,-99.99,meteohub,2013-04-06 10:40:00,
2013-04-06 06:46:00,38.1,20.3,30.32,NW,315,0.0,0.0,48,-99.99,,,-99.99,meteohub,2013-04-06 10:46:00,
2013-04-06 06:51:00,38.1,20.3,30.32,NW,315,2.0,2.0,48,-99.99,,,-99.99,meteohub,2013-04-06 10:51:00,
2013-04-06 06:56:00,38.1,20.3,30.32,NW,315,2.0,2.0,48,-99.99,,,-99.99,meteohub,2013-04-06 10:56:00,
2013-04-06 07:01:00,38.1,20.3,30.32,NW,315,2.0,2.0,48,-99.99,,,-99.99,meteohub,2013-04-06 11:01:00,
2013-04-06 07:06:00,37.9,20.1,30.32,NW,315,1.0,2.0,48,-99.99,,,-99.99,meteohub,2013-04-06 11:06:00,
2013-04-06 07:11:00,37.9,20.1,30.32,WNW,292,0.0,2.0,48,-99.99,,,-99.99,meteohub,2013-04-06 11:11:00,
2013-04-06 07:16:00,37.9,20.5,30.32,NW,315,0.0,2.0,49,-99.99,,,-99.99,meteohub,2013-04-06 11:16:00,
2013-04-06 07:21:00,37.9,20.5,30.32,NW,315,0.0,2.0,49,-99.99,,,-99.99,meteohub,2013-04-06 11:21:00,
2013-04-06 07:26:00,38.3,20.8,30.32,NW,315,0.0,0.0,49,-99.99,,,-99.99,meteohub,2013-04-06 11:26:00,
2013-04-06 07:31:00,38.7,21.2,30.32,NW,315,0.0,0.0,49,-99.99,,,-99.99,meteohub,2013-04-06 11:31:00,
2013-04-06 07:33:00,38.7,21.2,30.32,NW,315,0.0,0.0,49,-99.99,,,-99.99,meteohub,2013-04-06 11:33:00,
2013-04-06 07:38:00,38.8,20.8,30.35,NW,315,0.0,0.0,48,-99.99,,,-99.99,meteohub,2013-04-06 11:38:00,
2013-04-06 07:43:00,39.0,21.0,30.35,NW,315,0.0,0.0,48,-99.99,,,-99.99,meteohub,2013-04-06 11:43:00,
2013-04-06 07:48:00,39.2,20.7,30.35,NW,315,0.0,0.0,47,-99.99,,,-99.99,meteohub,2013-04-06 11:48:00,
2013-04-06 07:53:00,39.4,20.8,30.35,SW,225,0.0,0.0,47,-99.99,,,-99.99,meteohub,2013-04-06 11:53:00,
2013-04-06 07:58:00,39.6,21.0,30.34,SSE,158,0.0,0.0,47,-99.99,,,-99.99,meteohub,2013-04-06 11:58:00,
2013-04-06 08:03:00,39.7,21.2,30.34,SE,135,0.0,0.0,47,-99.99,,,-99.99,meteohub,2013-04-06 12:03:00,
2013-04-06 08:08:00,39.9,21.4,30.34,SE,135,4.0,0.0,47,-99.99,,,-99.99,meteohub,2013-04-06 12:08:00,
2013-04-06 08:13:00,40.3,22.3,30.34,South,180,2.0,4.0,48,-99.99,,,-99.99,meteohub,2013-04-06 12:13:00,
2013-04-06 08:18:00,40.5,22.3,30.33,SSE,158,2.0,4.0,48,-99.99,,,-99.99,meteohub,2013-04-06 12:18:00,
2013-04-06 08:23:00,40.6,22.5,30.33,ESE,112,2.0,4.0,48,-99.99,,,-99.99,meteohub,2013-04-06 12:23:00,
2013-04-06 08:28:00,41.0,22.8,30.33,SSE,158,2.0,4.0,48,-99.99,,,-99.99,meteohub,2013-04-06 12:28:00,
2013-04-06 08:33:00,41.2,23.0,30.33,SSE,158,4.0,4.0,48,-99.99,,,-99.99,meteohub,2013-04-06 12:33:00,
2013-04-06 08:38:00,41.7,23.5,30.32,SSE,158,4.0,5.0,48,-99.99,,,-99.99,meteohub,2013-04-06 12:38:00,
2013-04-06 08:43:00,41.9,23.7,30.32,SSE,158,4.0,5.0,48,-99.99,,,-99.99,meteohub,2013-04-06 12:43:00,
2013-04-06 08:48:00,42.1,23.9,30.32,SSE,158,4.0,5.0,48,-99.99,,,-99.99,meteohub,2013-04-06 12:48:00,
2013-04-06 08:53:00,42.4,24.3,30.35,SSE,158,4.0,5.0,48,-99.99,,,-99.99,meteohub,2013-04-06 12:53:00,
2013-04-06 08:58:00,42.8,24.4,30.35,ESE,112,5.0,5.0,48,-99.99,,,-99.99,meteohub,2013-04-06 12:58:00,
2013-04-06 09:03:00,43.3,24.4,30.35,SE,135,5.0,6.0,47,-99.99,,,-99.99,meteohub,2013-04-06 13:03:00,
2013-04-06 09:08:00,43.5,24.1,30.34,SSE,158,3.0,6.0,46,-99.99,,,-99.99,meteohub,2013-04-06 13:08:00,
2013-04-06 09:13:00,43.9,24.4,30.34,SE,135,6.0,6.0,46,-99.99,,,-99.99,meteohub,2013-04-06 13:13:00,
2013-04-06 09:18:00,44.1,24.6,30.34,SSE,158,3.0,6.0,46,-99.99,,,-99.99,meteohub,2013-04-06 13:18:00,
2013-04-06 09:23:00,44.6,24.1,30.33,SE,135,8.0,8.0,44,-99.99,,,-99.99,meteohub,2013-04-06 13:23:00,
2013-04-06 09:28:00,44.8,24.3,30.33,SSE,158,4.0,9.0,44,-99.99,,,-99.99,meteohub,2013-04-06 13:28:00,
2013-04-06 09:33:00,45.0,23.9,30.33,ESE,112,6.0,9.0,43,-99.99,,,-99.99,meteohub,2013-04-06 13:33:00,
2013-04-06 09:38:00,45.1,23.5,30.33,South,180,6.0,9.0,42,-99.99,,,-99.99,meteohub,2013-04-06 13:38:00,
2013-04-06 09:43:00,45.3,23.5,30.33,ESE,112,7.0,11.0,42,-99.99,,,-99.99,meteohub,2013-04-06 13:43:00,
2013-04-06 09:48:00,45.9,23.5,30.32,ESE,112,8.0,11.0,41,-99.99,,,-99.99,meteohub,2013-04-06 13:48:00,
2013-04-06 09:54:00,46.2,24.4,30.32,ESE,112,8.0,11.0,42,-99.99,,,-99.99,meteohub,2013-04-06 13:54:00,
2013-04-06 09:59:00,46.6,24.3,30.32,SE,135,8.0,10.0,41,-99.99,,,-99.99,meteohub,2013-04-06 13:59:00,
2013-04-06 10:04:00,46.9,23.9,30.32,SSE,158,6.0,10.0,40,-99.99,,,-99.99,meteohub,2013-04-06 14:04:00,
2013-04-06 10:09:00,47.3,24.8,30.31,SSE,158,7.0,10.0,41,-99.99,,,-99.99,meteohub,2013-04-06 14:09:00,
2013-04-06 10:14:00,47.5,24.4,30.31,SSE,158,7.0,10.0,40,-99.99,,,-99.99,meteohub,2013-04-06 14:14:00,
2013-04-06 10:19:00,48.2,25.0,30.30,SSE,158,10.0,10.0,40,-99.99,,,-99.99,meteohub,2013-04-06 14:19:00,
2013-04-06 10:24:00,48.4,24.6,30.30,SE,135,6.0,10.0,39,-99.99,,,-99.99,meteohub,2013-04-06 14:24:00,
2013-04-06 10:29:00,48.7,25.0,30.30,SSE,158,11.0,11.0,39,-99.99,,,-99.99,meteohub,2013-04-06 14:29:00,
2013-04-06 10:34:00,48.7,24.3,30.30,East,90,7.0,11.0,38,-99.99,,,-99.99,meteohub,2013-04-06 14:34:00,
2013-04-06 10:39:00,49.3,25.3,30.30,SSE,158,8.0,11.0,39,-99.99,,,-99.99,meteohub,2013-04-06 14:39:00,
2013-04-06 10:44:00,49.5,25.0,30.30,SSE,158,6.0,11.0,38,-99.99,,,-99.99,meteohub,2013-04-06 14:44:00,
2013-04-06 10:49:00,49.8,25.3,30.29,SSE,158,11.0,13.0,38,-99.99,,,-99.99,meteohub,2013-04-06 14:49:00,
2013-04-06 10:54:00,49.8,25.3,30.29,SSE,158,10.0,13.0,38,-99.99,,,-99.99,meteohub,2013-04-06 14:54:00,
2013-04-06 11:00:00,50.0,24.8,30.29,SSE,158,7.0,13.0,37,-99.99,,,-99.99,meteohub,2013-04-06 15:00:00,
2013-04-06 11:05:00,50.7,26.1,30.28,SSE,158,9.0,13.0,38,-99.99,,,-99.99,meteohub,2013-04-06 15:05:00,
2013-04-06 11:10:00,50.9,25.5,30.28,SSE,158,11.0,12.0,37,-99.99,,,-99.99,meteohub,2013-04-06 15:10:00,
2013-04-06 11:15:00,51.1,25.2,30.28,SE,135,9.0,13.0,36,-99.99,,,-99.99,meteohub,2013-04-06 15:15:00,
2013-04-06 11:20:00,51.4,26.1,30.28,SSE,158,4.0,13.0,37,-99.99,,,-99.99,meteohub,2013-04-06 15:20:00,
2013-04-06 11:25:00,51.8,26.4,30.27,SSE,158,9.0,13.0,37,-99.99,,,-99.99,meteohub,2013-04-06 15:25:00,
2013-04-06 11:30:00,52.3,26.2,30.27,SSE,158,6.0,13.0,36,-99.99,,,-99.99,meteohub,2013-04-06 15:30:00,
2013-04-06 11:35:00,52.3,26.2,30.27,SSE,158,10.0,13.0,36,-99.99,,,-99.99,meteohub,2013-04-06 15:35:00,
2013-04-06 11:40:00,52.9,26.8,30.27,SSE,158,8.0,13.0,36,-99.99,,,-99.99,meteohub,2013-04-06 15:40:00,
2013-04-06 11:45:00,53.1,26.8,30.27,SW,225,8.0,13.0,36,-99.99,,,-99.99,meteohub,2013-04-06 15:45:00,
2013-04-06 11:50:00,53.2,27.0,30.26,SSE,158,10.0,13.0,36,-99.99,,,-99.99,meteohub,2013-04-06 15:50:00,
2013-04-06 11:55:00,53.8,27.5,30.26,SSE,158,12.0,15.0,36,-99.99,,,-99.99,meteohub,2013-04-06 15:55:00,
2013-04-06 12:00:00,53.4,27.1,30.26,SSE,158,10.0,17.0,36,-99.99,,,-99.99,meteohub,2013-04-06 16:00:00,
2013-04-06 12:05:00,53.8,26.8,30.26,SE,135,11.0,17.0,35,-99.99,,,-99.99,meteohub,2013-04-06 16:05:00,
2013-04-06 12:10:00,53.6,26.6,30.30,SSE,158,15.0,17.0,35,-99.99,,,-99.99,meteohub,2013-04-06 16:10:00,
2013-04-06 12:15:00,53.6,27.3,30.30,SSE,158,10.0,15.0,36,-99.99,,,-99.99,meteohub,2013-04-06 16:15:00,
2013-04-06 12:20:00,54.1,27.9,30.29,SSE,158,11.0,15.0,36,-99.99,,,-99.99,meteohub,2013-04-06 16:20:00,
2013-04-06 12:25:00,54.0,27.0,30.26,SSW,202,12.0,17.0,35,-99.99,,,-99.99,meteohub,2013-04-06 16:25:00,
2013-04-06 12:30:00,54.1,27.9,30.26,SSE,158,4.0,17.0,36,-99.99,,,-99.99,meteohub,2013-04-06 16:30:00,
2013-04-06 12:35:00,54.5,27.5,30.25,SSE,158,13.0,13.0,35,-99.99,,,-99.99,meteohub,2013-04-06 16:35:00,
2013-04-06 12:40:00,54.9,28.4,30.25,SSE,158,13.0,14.0,36,-99.99,,,-99.99,meteohub,2013-04-06 16:40:00,
2013-04-06 12:45:00,54.9,28.4,30.25,SSE,158,15.0,17.0,36,-99.99,,,-99.99,meteohub,2013-04-06 16:45:00,
2013-04-06 12:50:00,55.2,28.8,30.25,SSE,158,11.0,18.0,36,-99.99,,,-99.99,meteohub,2013-04-06 16:50:00,
2013-04-06 12:56:00,55.2,28.8,30.25,ESE,112,10.0,18.0,36,-99.99,,,-99.99,meteohub,2013-04-06 16:56:00,
2013-04-06 13:01:00,55.4,28.2,30.25,SSE,158,10.0,18.0,35,-99.99,,,-99.99,meteohub,2013-04-06 17:01:00,
2013-04-06 13:06:00,55.4,28.2,30.25,SSE,158,11.0,15.0,35,-99.99,,,-99.99,meteohub,2013-04-06 17:06:00,
2013-04-06 13:11:00,55.9,28.8,30.24,SSW,202,15.0,15.0,35,-99.99,,,-99.99,meteohub,2013-04-06 17:11:00,
2013-04-06 13:17:00,56.1,28.9,30.24,SSE,158,10.0,15.0,35,-99.99,,,-99.99,meteohub,2013-04-06 17:17:00,
2013-04-06 13:22:00,56.5,29.1,30.24,SE,135,10.0,15.0,35,-99.99,,,-99.99,meteohub,2013-04-06 17:22:00,
2013-04-06 13:27:00,57.2,29.1,30.23,SSE,158,10.0,15.0,34,-99.99,,,-99.99,meteohub,2013-04-06 17:27:00,
2013-04-06 13:32:00,57.9,30.6,30.23,SSE,158,13.0,16.0,35,-99.99,,,-99.99,meteohub,2013-04-06 17:32:00,
2013-04-06 13:37:00,59.2,30.2,30.22,SE,135,10.0,16.0,33,-99.99,,,-99.99,meteohub,2013-04-06 17:37:00,
2013-04-06 13:42:00,59.5,28.0,30.22,SSE,158,13.0,17.0,30,-99.99,,,-99.99,meteohub,2013-04-06 17:42:00,
2013-04-06 13:47:00,60.3,28.8,30.21,SSE,158,11.0,17.0,30,-99.99,,,-99.99,meteohub,2013-04-06 17:47:00,
2013-04-06 13:52:00,60.8,28.4,30.20,SSE,158,15.0,17.0,29,-99.99,,,-99.99,meteohub,2013-04-06 17:52:00,
2013-04-06 13:57:00,61.5,29.8,30.20,SSE,158,10.0,17.0,30,-99.99,,,-99.99,meteohub,2013-04-06 17:57:00,
2013-04-06 14:02:00,61.3,28.9,30.20,SSE,158,10.0,17.0,29,-99.99,,,-99.99,meteohub,2013-04-06 18:02:00,
2013-04-06 14:07:00,61.3,28.9,30.20,SSE,158,13.0,18.0,29,-99.99,,,-99.99,meteohub,2013-04-06 18:07:00,
2013-04-06 14:12:00,61.9,28.4,30.19,SSE,158,15.0,19.0,28,-99.99,,,-99.99,meteohub,2013-04-06 18:12:00,
2013-04-06 14:17:00,61.9,28.4,30.19,SSE,158,13.0,19.0,28,-99.99,,,-99.99,meteohub,2013-04-06 18:17:00,
2013-04-06 14:22:00,62.1,27.7,30.19,SSE,158,8.0,19.0,27,-99.99,,,-99.99,meteohub,2013-04-06 18:22:00,
2013-04-06 14:28:00,61.7,27.5,30.20,SSE,158,13.0,18.0,27,-99.99,,,-99.99,meteohub,2013-04-06 18:28:00,
2013-04-06 14:33:00,62.6,28.2,30.19,SSE,158,10.0,16.0,27,-99.99,,,-99.99,meteohub,2013-04-06 18:33:00,
2013-04-06 14:38:00,62.8,27.5,30.19,South,180,10.0,16.0,26,-99.99,,,-99.99,meteohub,2013-04-06 18:38:00,
2013-04-06 14:43:00,62.4,27.1,30.19,SSE,158,8.0,17.0,26,-99.99,,,-99.99,meteohub,2013-04-06 18:43:00,
2013-04-06 14:48:00,63.0,27.7,30.19,South,180,16.0,20.0,26,-99.99,,,-99.99,meteohub,2013-04-06 18:48:00,
2013-04-06 14:53:00,62.8,27.5,30.19,SSE,158,12.0,20.0,26,-99.99,,,-99.99,meteohub,2013-04-06 18:53:00,
2013-04-06 14:58:00,63.0,27.7,30.19,SSE,158,10.0,20.0,26,-99.99,,,-99.99,meteohub,2013-04-06 18:58:00,
2013-04-06 15:03:00,63.5,28.0,30.18,SSE,158,14.0,16.0,26,-99.99,,,-99.99,meteohub,2013-04-06 19:03:00,
2013-04-06 15:08:00,63.5,27.1,30.18,South,180,10.0,16.0,25,-99.99,,,-99.99,meteohub,2013-04-06 19:08:00,
2013-04-06 15:13:00,63.5,28.0,30.18,SSE,158,15.0,17.0,26,-99.99,,,-99.99,meteohub,2013-04-06 19:13:00,
2013-04-06 15:18:00,63.3,27.0,30.19,SSE,158,15.0,19.0,25,-99.99,,,-99.99,meteohub,2013-04-06 19:18:00,
2013-04-06 15:23:00,63.0,26.6,30.19,SSE,158,11.0,19.0,25,-99.99,,,-99.99,meteohub,2013-04-06 19:23:00,
2013-04-06 15:28:00,62.8,26.4,30.19,SSE,158,11.0,19.0,25,-99.99,,,-99.99,meteohub,2013-04-06 19:28:00,
2013-04-06 15:33:00,62.6,26.4,30.19,SE,135,13.0,18.0,25,-99.99,,,-99.99,meteohub,2013-04-06 19:33:00,
2013-04-06 15:38:00,62.6,26.4,30.16,ESE,112,13.0,18.0,25,-99.99,,,-99.99,meteohub,2013-04-06 19:38:00,
2013-04-06 15:43:00,63.0,26.6,30.15,SSW,202,13.0,18.0,25,-99.99,,,-99.99,meteohub,2013-04-06 19:43:00,
2013-04-06 15:49:00,62.6,26.4,30.16,SSE,158,12.0,18.0,25,-99.99,,,-99.99,meteohub,2013-04-06 19:49:00,
2013-04-06 15:54:00,62.8,26.4,30.16,SSE,158,11.0,16.0,25,-99.99,,,-99.99,meteohub,2013-04-06 19:54:00,
2013-04-06 15:59:00,62.4,26.2,30.16,SSW,202,15.0,17.0,25,-99.99,,,-99.99,meteohub,2013-04-06 19:59:00,
2013-04-06 16:04:00,62.1,25.9,30.16,SSE,158,14.0,17.0,25,-99.99,,,-99.99,meteohub,2013-04-06 20:04:00,
2013-04-06 16:09:00,61.9,25.7,30.16,SSE,158,10.0,16.0,25,-99.99,,,-99.99,meteohub,2013-04-06 20:09:00,
2013-04-06 16:14:00,61.2,25.2,30.17,ESE,112,11.0,16.0,25,-99.99,,,-99.99,meteohub,2013-04-06 20:14:00,
2013-04-06 16:20:00,61.3,25.3,30.17,SE,135,5.0,16.0,25,-99.99,,,-99.99,meteohub,2013-04-06 20:20:00,
2013-04-06 16:25:00,61.5,25.3,30.17,SSE,158,13.0,16.0,25,-99.99,,,-99.99,meteohub,2013-04-06 20:25:00,
2013-04-06 16:30:00,61.3,25.3,30.17,SSE,158,15.0,16.0,25,-99.99,,,-99.99,meteohub,2013-04-06 20:30:00,
2013-04-06 16:35:00,60.8,24.8,30.17,SE,135,8.0,16.0,25,-99.99,,,-99.99,meteohub,2013-04-06 20:35:00,
2013-04-06 16:40:00,60.8,24.8,30.17,SE,135,10.0,17.0,25,-99.99,,,-99.99,meteohub,2013-04-06 20:40:00,
2013-04-06 16:45:00,60.4,24.4,30.17,SSE,158,10.0,17.0,25,-99.99,,,-99.99,meteohub,2013-04-06 20:45:00,
2013-04-06 16:52:00,59.5,23.7,30.18,SSE,158,11.0,17.0,25,-99.99,,,-99.99,meteohub,2013-04-06 20:52:00,
2013-04-06 16:57:00,59.4,24.4,30.18,SSE,158,10.0,18.0,26,-99.99,,,-99.99,meteohub,2013-04-06 20:57:00,
2013-04-06 17:02:00,59.2,24.4,30.18,SSE,158,12.0,18.0,26,-99.99,,,-99.99,meteohub,2013-04-06 21:02:00,
2013-04-06 17:07:00,58.8,24.1,30.19,SSE,158,10.0,19.0,26,-99.99,,,-99.99,meteohub,2013-04-06 21:07:00,
2013-04-06 17:12:00,58.6,23.9,30.19,SSE,158,15.0,19.0,26,-99.99,,,-99.99,meteohub,2013-04-06 21:12:00,
2013-04-06 17:17:00,58.3,23.5,30.19,SSE,158,11.0,19.0,26,-99.99,,,-99.99,meteohub,2013-04-06 21:17:00,
2013-04-06 17:22:00,57.9,23.4,30.19,South,180,14.0,19.0,26,-99.99,,,-99.99,meteohub,2013-04-06 21:22:00,
2013-04-06 17:27:00,57.7,23.2,30.19,SSE,158,11.0,19.0,26,-99.99,,,-99.99,meteohub,2013-04-06 21:27:00,
2013-04-06 17:32:00,57.4,23.7,30.20,South,180,5.0,17.0,27,-99.99,,,-99.99,meteohub,2013-04-06 21:32:00,
2013-04-06 17:37:00,56.8,23.4,30.20,SSE,158,15.0,17.0,27,-99.99,,,-99.99,meteohub,2013-04-06 21:37:00,
2013-04-06 17:42:00,56.5,23.0,30.20,SSE,158,12.0,16.0,27,-99.99,,,-99.99,meteohub,2013-04-06 21:42:00,
2013-04-06 17:47:00,56.1,23.5,30.21,SSE,158,13.0,16.0,28,-99.99,,,-99.99,meteohub,2013-04-06 21:47:00,
2013-04-06 17:52:00,55.8,23.2,30.21,ESE,112,11.0,17.0,28,-99.99,,,-99.99,meteohub,2013-04-06 21:52:00,
2013-04-06 17:57:00,55.9,23.4,30.21,SSE,158,11.0,17.0,28,-99.99,,,-99.99,meteohub,2013-04-06 21:57:00,
2013-04-06 18:02:00,55.9,23.4,30.21,SSE,158,11.0,17.0,28,-99.99,,,-99.99,meteohub,2013-04-06 22:02:00,
2013-04-06 18:07:00,55.9,23.4,30.21,SSE,158,11.0,17.0,28,-99.99,,,-99.99,meteohub,2013-04-06 22:07:00,
2013-04-06 18:12:00,55.6,23.0,30.21,SSE,158,11.0,15.0,28,-99.99,,,-99.99,meteohub,2013-04-06 22:12:00,
2013-04-06 18:17:00,55.8,24.1,30.21,SSW,202,7.0,19.0,29,-99.99,,,-99.99,meteohub,2013-04-06 22:17:00,
2013-04-06 18:22:00,55.6,23.0,30.21,SSE,158,8.0,19.0,28,-99.99,,,-99.99,meteohub,2013-04-06 22:22:00,
2013-04-06 18:27:00,55.4,22.8,30.21,South,180,8.0,19.0,28,-99.99,,,-99.99,meteohub,2013-04-06 22:27:00,
2013-04-06 18:32:00,54.9,23.2,30.22,SSE,158,10.0,16.0,29,-99.99,,,-99.99,meteohub,2013-04-06 22:32:00,
2013-04-06 18:37:00,54.5,23.0,30.22,SSE,158,9.0,16.0,29,-99.99,,,-99.99,meteohub,2013-04-06 22:37:00,
2013-04-06 18:42:00,54.0,22.5,30.22,SSE,158,15.0,16.0,29,-99.99,,,-99.99,meteohub,2013-04-06 22:42:00,
2013-04-06 18:47:00,53.2,22.6,30.23,SSE,158,13.0,13.0,30,-99.99,,,-99.99,meteohub,2013-04-06 22:47:00,
2013-04-06 18:52:00,52.7,22.3,30.23,SSE,158,10.0,15.0,30,-99.99,,,-99.99,meteohub,2013-04-06 22:52:00,
2013-04-06 18:57:00,52.3,22.6,30.24,SSE,158,11.0,15.0,31,-99.99,,,-99.99,meteohub,2013-04-06 22:57:00,
2013-04-06 19:02:00,52.0,22.3,30.24,SE,135,10.0,15.0,31,-99.99,,,-99.99,meteohub,2013-04-06 23:02:00,
2013-04-06 19:08:00,51.8,23.0,30.24,South,180,6.0,14.0,32,-99.99,,,-99.99,meteohub,2013-04-06 23:08:00,
2013-04-06 19:13:00,51.6,23.5,30.24,SSE,158,7.0,13.0,33,-99.99,,,-99.99,meteohub,2013-04-06 23:13:00,
2013-04-06 19:18:00,51.4,23.4,30.25,South,180,7.0,13.0,33,-99.99,,,-99.99,meteohub,2013-04-06 23:18:00,
2013-04-06 19:23:00,51.1,23.7,30.25,South,180,11.0,13.0,34,-99.99,,,-99.99,meteohub,2013-04-06 23:23:00,
2013-04-06 19:28:00,50.9,24.3,30.25,South,180,9.0,13.0,35,-99.99,,,-99.99,meteohub,2013-04-06 23:28:00,
2013-04-06 19:33:00,50.7,24.1,30.25,SSE,158,11.0,11.0,35,-99.99,,,-99.99,meteohub,2013-04-06 23:33:00,
2013-04-06 19:38:00,50.5,24.6,30.25,South,180,7.0,11.0,36,-99.99,,,-99.99,meteohub,2013-04-06 23:38:00,
2013-04-06 19:43:00,50.2,24.3,30.25,South,180,5.0,11.0,36,-99.99,,,-99.99,meteohub,2013-04-06 23:43:00,
2013-04-06 19:48:00,50.0,24.1,30.26,SSE,158,5.0,11.0,36,-99.99,,,-99.99,meteohub,2013-04-06 23:48:00,
2013-04-06 19:54:00,49.8,24.6,30.26,SSE,158,5.0,10.0,37,-99.99,,,-99.99,meteohub,2013-04-06 23:54:00,
2013-04-06 19:59:00,49.6,24.4,30.26,SSE,158,6.0,10.0,37,-99.99,,,-99.99,meteohub,2013-04-06 23:59:00,
2013-04-06 20:04:00,49.5,24.3,30.26,SSE,158,4.0,8.0,37,-99.99,,,-99.99,meteohub,2013-04-07 00:04:00,
2013-04-06 20:09:00,49.3,24.1,30.30,SSE,158,6.0,8.0,37,-99.99,,,-99.99,meteohub,2013-04-07 00:09:00,
2013-04-06 20:14:00,49.3,24.1,30.30,SSE,158,5.0,8.0,37,-99.99,,,-99.99,meteohub,2013-04-07 00:14:00,
2013-04-06 20:19:00,49.1,24.1,30.30,SSE,158,4.0,9.0,37,-99.99,,,-99.99,meteohub,2013-04-07 00:19:00,
2013-04-06 20:24:00,48.9,24.4,30.30,SSE,158,7.0,9.0,38,-99.99,,,-99.99,meteohub,2013-04-07 00:24:00,
2013-04-06 20:29:00,48.7,24.3,30.30,SSE,158,6.0,9.0,38,-99.99,,,-99.99,meteohub,2013-04-07 00:29:00,
2013-04-06 20:34:00,48.7,24.3,30.30,SSE,158,4.0,9.0,38,-99.99,,,-99.99,meteohub,2013-04-07 00:34:00,
2013-04-06 20:39:00,48.6,24.1,30.30,South,180,6.0,9.0,38,-99.99,,,-99.99,meteohub,2013-04-07 00:39:00,
2013-04-06 20:45:00,48.6,24.1,30.30,South,180,6.0,9.0,38,-99.99,,,-99.99,meteohub,2013-04-07 00:45:00,
2013-04-06 20:50:00,48.6,24.1,30.30,SSE,158,7.0,9.0,38,-99.99,,,-99.99,meteohub,2013-04-07 00:50:00,
2013-04-06 20:55:00,48.4,24.1,30.30,South,180,8.0,10.0,38,-99.99,,,-99.99,meteohub,2013-04-07 00:55:00,
2013-04-06 21:00:00,48.2,23.9,30.30,SSE,158,6.0,9.0,38,-99.99,,,-99.99,meteohub,2013-04-07 01:00:00,
2013-04-06 21:05:00,48.2,23.9,30.30,SSE,158,7.0,9.0,38,-99.99,,,-99.99,meteohub,2013-04-07 01:05:00,
2013-04-06 21:10:00,48.0,23.7,30.31,SSE,158,6.0,9.0,38,-99.99,,,-99.99,meteohub,2013-04-07 01:10:00,
2013-04-06 21:15:00,47.8,23.5,30.31,SSE,158,8.0,11.0,38,-99.99,,,-99.99,meteohub,2013-04-07 01:15:00,
2013-04-06 21:20:00,47.8,24.1,30.31,SSE,158,6.0,11.0,39,-99.99,,,-99.99,meteohub,2013-04-07 01:20:00,
2013-04-06 21:25:00,47.8,24.1,30.31,SSE,158,6.0,11.0,39,-99.99,,,-99.99,meteohub,2013-04-07 01:25:00,
2013-04-06 21:30:00,47.5,23.7,30.31,SSE,158,6.0,10.0,39,-99.99,,,-99.99,meteohub,2013-04-07 01:30:00,
2013-04-06 21:35:00,47.5,23.7,30.31,SSE,158,8.0,9.0,39,-99.99,,,-99.99,meteohub,2013-04-07 01:35:00,
2013-04-06 21:40:00,47.5,23.7,30.31,SE,135,7.0,10.0,39,-99.99,,,-99.99,meteohub,2013-04-07 01:40:00,
2013-04-06 21:45:00,47.3,23.7,30.31,SSE,158,9.0,11.0,39,-99.99,,,-99.99,meteohub,2013-04-07 01:45:00,
2013-04-06 21:50:00,47.3,23.7,30.31,SE,135,10.0,12.0,39,-99.99,,,-99.99,meteohub,2013-04-07 01:50:00,
2013-04-06 21:55:00,47.3,23.7,30.31,SSE,158,8.0,12.0,39,-99.99,,,-99.99,meteohub,2013-04-07 01:55:00,
2013-04-06 22:00:00,47.3,24.3,30.31,SSW,202,10.0,12.0,40,-99.99,,,-99.99,meteohub,2013-04-07 02:00:00,
2013-04-06 22:05:00,47.3,24.3,30.31,South,180,8.0,10.0,40,-99.99,,,-99.99,meteohub,2013-04-07 02:05:00,
2013-04-06 22:10:00,47.1,23.5,30.31,SSE,158,10.0,11.0,39,-99.99,,,-99.99,meteohub,2013-04-07 02:10:00,
2013-04-06 22:15:00,46.9,23.9,30.32,SSE,158,9.0,11.0,40,-99.99,,,-99.99,meteohub,2013-04-07 02:15:00,
2013-04-06 22:20:00,46.9,23.9,30.32,SSE,158,9.0,10.0,40,-99.99,,,-99.99,meteohub,2013-04-07 02:20:00,
2013-04-06 22:25:00,46.9,23.9,30.32,SSE,158,6.0,13.0,40,-99.99,,,-99.99,meteohub,2013-04-07 02:25:00,
2013-04-06 22:30:00,46.9,23.9,30.32,SSE,158,11.0,13.0,40,0.00,,,0.00,meteohub,2013-04-07 02:30:00,
2013-04-06 22:36:00,46.9,23.9,30.32,SSE,158,8.0,13.0,40,0.08,,,0.08,meteohub,2013-04-07 02:36:00,
2013-04-06 22:41:00,46.9,23.9,30.32,SSE,158,6.0,12.0,40,0.08,,,0.08,meteohub,2013-04-07 02:41:00,
2013-04-06 22:46:00,46.8,23.7,30.32,SSE,158,9.0,12.0,40,0.34,,,0.34,meteohub,2013-04-07 02:46:00,
2013-04-06 22:51:00,46.6,23.5,30.32,SSE,158,9.0,14.0,40,0.34,,,0.34,meteohub,2013-04-07 02:51:00,
2013-04-06 22:56:00,46.6,24.3,30.32,SSE,158,10.0,14.0,41,0.34,,,0.34,meteohub,2013-04-07 02:56:00,
2013-04-06 23:01:00,46.8,24.4,30.32,SSE,158,9.0,15.0,41,0.34,,,0.34,meteohub,2013-04-07 03:01:00,
2013-04-06 23:06:00,46.8,24.4,30.32,SSE,158,9.0,15.0,41,0.34,,,0.34,meteohub,2013-04-07 03:06:00,
2013-04-06 23:11:00,46.8,24.4,30.32,SSE,158,10.0,15.0,41,0.34,,,0.34,meteohub,2013-04-07 03:11:00,
2013-04-06 23:16:00,46.8,24.4,30.32,SSE,158,9.0,16.0,41,0.34,,,0.34,meteohub,2013-04-07 03:16:00,
2013-04-06 23:21:00,46.8,24.4,30.32,SSE,158,13.0,17.0,41,0.34,,,0.34,meteohub,2013-04-07 03:21:00,
2013-04-06 23:26:00,46.8,24.4,30.32,SSE,158,11.0,17.0,41,0.34,,,0.34,meteohub,2013-04-07 03:26:00,
2013-04-06 23:31:00,46.8,24.4,30.32,SSE,158,13.0,15.0,41,0.26,,,0.34,meteohub,2013-04-07 03:31:00,
2013-04-06 23:36:00,46.8,24.4,30.32,SSE,158,10.0,17.0,41,0.26,,,0.34,meteohub,2013-04-07 03:36:00,
2013-04-06 23:42:00,46.9,24.4,30.32,SSE,158,11.0,17.0,41,0.21,,,0.34,meteohub,2013-04-07 03:42:00,
2013-04-06 23:47:00,46.9,24.4,30.32,SSE,158,18.0,18.0,41,0.00,,,0.34,meteohub,2013-04-07 03:47:00,
2013-04-06 23:52:00,46.9,24.4,30.32,SSE,158,17.0,21.0,41,0.00,,,0.34,meteohub,2013-04-07 03:52:00,
2013-04-06 23:57:00,46.9,24.4,30.32,SSE,158,13.0,21.0,41,0.00,,,0.34,meteohub,2013-04-07 03:57:00,